Content
SEND FEEDBACK

Daily
Averages
Monthly
Summary
United Kingdom

LEAMOUTH, ENGLAND


Home > Europe > United Kingdom > England
Elevation: 23 feet     Latitude: 51 30N     Longitude: 000 00E

WEATHER
 
SELECT A DAY
Number of Records: 215,089;   Date Range: 7/1/96 - 11/25/14
 
SHARE

PRINT THIS DATA

[ ← Previous Day ]
WEATHER ALMANAC - NOVEMBER 1, 2013
[ Next Day → ]
[ °C ]   °F
Weather ElementAverageHighLow
Temperature55.9 °F59 °F (12:50 pm)53.6 °F (7:50 pm)
Dewpoint50.5 °F51.8 °F (2:20 am)50 °F (12:50 am)
Humidity82.2 %94 % (8:50 pm)72 % (2:50 pm)
Barometer29.78 in29.92 in (12:50 am)29.56 in (10:20 pm)
Wind Speed8.2 mph15 mph (4:50 am)
Weather ElementAverage
Visibility6 mi
Wind DirectionS (182.3 °)

Weather ElementTotal
Precipitation---
Heating Degree Days8.7 (Base 65)
Growing Degree Days6.3 (Base 50)
Averaged from 47 records on November 1, 2013
WEATHER CONDITIONS BREAKOUT
WIND DIRECTION BREAKOUT
WEATHER BY HOUR - NOVEMBER 1, 2013
[ °C ]   °F
Local TimeTemperatureDewpointHumidityBarometerVisibilityWind DirectionWind SpeedGust SpeedPrecipitationEventsConditions
12:50 AM55.4 °F50.0 °F82 %29.92 in6.2 miSSW (210°)9.2 mph
1:20 AM55.4 °F50.0 °F82 %29.92 in6.2 miSSW (210°)9.2 mph
1:50 AM55.4 °F50.0 °F82 %29.92 in6.2 miSSW (210°)8.1 mphRainLight Rain
2:20 AM57.2 °F51.8 °F82 %29.89 in6.2 miSSW (210°)10.4 mph
2:50 AM57.2 °F50.0 °F77 %29.89 in6.2 miSW (220°)11.5 mphMostly Cloudy
3:20 AM57.2 °F50.0 °F77 %29.89 in6.2 miSSW (210°)12.7 mphScattered Clouds
3:50 AM57.2 °F50.0 °F77 %29.89 in6.2 miSW (220°)11.5 mphMostly Cloudy
4:20 AM57.2 °F50.0 °F77 %29.89 in6.2 miWSW (240°)12.7 mphOvercast
4:50 AM55.4 °F50.0 °F82 %29.89 in6.2 miWSW (240°)15.0 mphOvercast
5:20 AM55.4 °F50.0 °F82 %29.86 in6.2 miWSW (250°)12.7 mphLight Drizzle
5:50 AM55.4 °F50.0 °F82 %29.89 in6.2 miWSW (250°)12.7 mphRainLight Rain Showers
6:20 AM55.4 °F50.0 °F82 %29.89 in6.2 miWSW (250°)10.4 mphScattered Clouds
6:50 AM55.4 °F50.0 °F82 %29.89 in6.2 miWSW (250°)9.2 mphPartly Cloudy
7:20 AM55.4 °F50.0 °F82 %29.89 in6.2 miSW (230°)8.1 mphPartly Cloudy
7:50 AM55.4 °F50.0 °F82 %29.89 in6.2 miSW (230°)6.9 mphPartly Cloudy
8:20 AM55.4 °F50.0 °F82 %29.89 in6.2 miSW (220°)5.8 mphPartly Cloudy
8:50 AM55.4 °F50.0 °F82 %29.89 inSW (220°)5.8 mphClear
9:20 AM55.4 °F50.0 °F82 %29.89 in6.2 miSSW (200°)6.9 mphPartly Cloudy
9:50 AM55.4 °F50.0 °F82 %29.86 in6.2 miSSW (200°)6.9 mphPartly Cloudy
10:20 AM57.2 °F50.0 °F77 %29.86 in6.2 miSouth (190°)5.8 mphPartly Cloudy
10:50 AM57.2 °F50.0 °F77 %29.86 in6.2 miSSW (210°)6.9 mphPartly Cloudy
11:20 AM57.2 °F50.0 °F77 %29.83 in6.2 miSouth (190°)8.1 mphScattered Clouds
11:50 AM57.2 °F50.0 °F77 %29.83 in6.2 miSSW (210°)8.1 mphMostly Cloudy
12:20 PM57.2 °F51.8 °F82 %29.83 in6.2 miSSW (200°)8.1 mphPartly Cloudy
12:50 PM59.0 °F51.8 °F77 %29.80 in6.2 miSSW (200°)9.2 mphScattered Clouds
1:20 PM59.0 °F51.8 °F77 %29.80 in6.2 miSSW (210°)11.5 mphScattered Clouds
1:50 PM59.0 °F51.8 °F77 %29.77 in6.2 miSSW (210°)11.5 mphMostly Cloudy
2:20 PM59.0 °F51.8 °F77 %29.77 in6.2 miSSW (210°)12.7 mphMostly Cloudy
2:50 PM59.0 °F50.0 °F72 %29.74 in6.2 miSSW (210°)12.7 mphScattered Clouds
3:20 PM57.2 °F50.0 °F77 %29.74 in6.2 miSSW (210°)11.5 mphMostly Cloudy
3:50 PM57.2 °F50.0 °F77 %29.74 in6.2 miSSW (210°)11.5 mphMostly Cloudy
4:20 PM57.2 °F50.0 °F77 %29.74 inSSW (210°)9.2 mphClear
4:50 PM55.4 °F50.0 °F82 %29.71 in6.2 miSouth (190°)6.9 mphPartly Cloudy
5:20 PM55.4 °F50.0 °F82 %29.71 inSouth (180°)6.9 mphClear
5:50 PM55.4 °F50.0 °F82 %29.71 in6.2 miSSE (160°)4.6 mphPartly Cloudy
6:20 PM55.4 °F50.0 °F82 %29.68 in6.2 miSSE (150°)5.8 mphPartly Cloudy
6:50 PM55.4 °F50.0 °F82 %29.65 inSSE (160°)5.8 mphClear
7:20 PM55.4 °F50.0 °F82 %29.65 inSE (140°)4.6 mphClear
7:50 PM53.6 °F50.0 °F88 %29.62 inESE (110°)5.8 mphClear
8:20 PM53.6 °F50.0 °F88 %29.62 inESE (120°)5.8 mphClear
8:50 PM53.6 °F51.8 °F94 %29.62 in6.2 miEast (100°)4.6 mphLight Drizzle
9:20 PM53.6 °F51.8 °F94 %29.59 in6.2 miEast (80°)5.8 mphRainLight Rain
9:50 PM53.6 °F51.8 °F94 %29.59 in5.0 miEast (100°)5.8 mphRainLight Rain
10:20 PM53.6 °F51.8 °F94 %29.56 in6.2 miENE (60°)3.5 mphRainLight Rain
10:50 PM53.6 °F51.8 °F94 %29.56 in3.1 miCalmRainLight Rain
11:20 PM53.6 °F51.8 °F94 %29.56 in3.7 miENE (60°)3.5 mphMostly Cloudy
11:50 PM53.6 °F51.8 °F94 %29.56 inNNE (20°)3.5 mphDrizzle
Hourly data recorded from EGLC, located miles away from Leamouth, England







STORIES FROM OUR PARTNERS